Location: Newark
(58.8333°N, 23.5833°E)
Time: 18:30:47
(UTC+00:00)

Explorer 7 - Pass Details

Date: 25 November 2019
Orbit: 485 x 680 km, 50.3° (Epoch: 10 December)

Event Time Altitude Azimuth Distance (km) Brightness Sun altitude
Rises 01:16:40 0° 267° (W) 2,883 - -39.6°
Reaches altitude 10° 01:19:43 10° 247° (WSW) 1,933 - -39.3°
Maximum altitude 01:22:30 17° 207° (SSW) 1,508 - -39.0°
Drops below altitude 10° 01:25:11 10° 168° (SSE) 1,848 - -38.7°
Sets 01:28:00 0° 147° (SSE) 2,698 - -38.3°
